GW1261 Weather Reports


Display with metric or nautical units.
time (UTC)temp
F
wind
direction
speed
MPH
gust
MPH
rain 1hr
in
rain 24hr
in
rain mn
in
humidity
%
barometer
mb
20260506190111 74 204 0.0 0.0 0.00 0.00 0.00 98 974.9
20260506185609 74 218 0.0 0.0 0.00 0.00 0.00 98 975.2
20260506185105 74 218 0.0 0.0 0.00 0.00 0.00 98 974.8
20260506184602 74 216 0.0 0.0 0.00 0.00 0.00 98 975.0
20260506184100 74 241 0.0 0.0 0.00 0.00 0.00 98 974.9
20260506183556 74 214 0.0 0.0 0.00 0.00 0.00 98 975.0
20260506183052 74 213 0.0 0.0 0.00 0.00 0.00 98 975.1
20260506182550 75 213 0.0 0.0 0.00 0.00 0.00 97 975.1
20260506182047 75 213 0.0 0.0 0.00 0.00 0.00 97 974.9
20260506181545 75 213 0.0 0.0 0.00 0.00 0.00 96 975.4
20260506181041 75 213 0.0 0.0 0.00 0.00 0.00 97 975.2
20260506180538 75 213 0.0 0.0 0.00 0.00 0.00 96 975.1
20260506180034 75 213 0.0 0.0 0.00 0.00 0.00 95 975.0
20260506175531 75 213 0.0 0.0 0.00 0.00 0.00 95 975.4
20260506175027 75 213 0.0 0.0 0.00 0.00 0.00 95 975.3
20260506174526 75 211 0.0 0.0 0.00 0.00 0.00 94 975.4
20260506174022 76 185 0.0 0.0 0.00 0.00 0.00 93 975.4
20260506173520 75 184 0.0 0.0 0.00 0.00 0.00 95 975.4
20260506173016 76 214 0.0 0.0 0.00 0.00 0.00 95 975.7
20260506172514 76 213 0.0 0.0 0.00 0.00 0.00 95 975.4
20260506172010 76 212 0.0 0.0 0.00 0.00 0.00 94 975.4
20260506171507 76 216 0.0 0.0 0.00 0.00 0.00 95 975.5
20260506171005 76 216 0.0 0.0 0.00 0.00 0.00 95 975.6
20260506170501 76 217 0.0 0.0 0.00 0.00 0.00 93 975.7
20260506165954 76 205 0.0 0.0 0.00 0.00 0.00 92 975.6
20260506165452 76 216 0.0 0.0 0.00 0.00 0.00 92 975.5
20260506164942 77 215 0.0 0.0 0.00 0.00 0.00 90 975.7
20260506164439 76 201 0.0 0.0 0.00 0.00 0.00 91 975.5
20260506163937 76 208 0.0 0.0 0.00 0.00 0.00 91 975.5
20260506163431 76 208 0.0 0.0 0.00 0.00 0.00 91 975.8
20260506162926 76 156 0.0 0.0 0.00 0.00 0.00 91 975.5
20260506162424 76 212 0.0 0.0 0.00 0.00 0.00 91 975.9
20260506161916 76 223 0.0 0.0 0.00 0.00 0.00 91 975.5
20260506161414 77 230 0.0 0.0 0.00 0.00 0.00 92 976.0
20260506160905 77 225 0.0 0.0 0.00 0.00 0.00 90 975.8
20260506160402 77 219 0.0 0.0 0.00 0.00 0.00 89 975.6
20260506155900 77 219 0.0 0.0 0.00 0.00 0.00 89 975.7
20260506155356 77 219 0.0 0.0 0.00 0.00 0.00 88 975.7
20260506153514 77 219 0.0 0.0 0.00 0.00 0.00 87 975.4
20260506153011 77 219 0.0 0.0 0.00 0.00 0.00 87 975.6
20260506152508 78 219 0.0 0.0 0.00 0.00 0.00 87 975.5
20260506152006 78 219 0.0 0.0 0.00 0.00 0.00 86 975.7
20260506151503 78 219 0.0 0.0 0.00 0.00 0.00 85 975.6
20260506151001 78 216 0.0 0.0 0.00 0.00 0.00 84 975.4
20260506150456 78 215 0.0 0.0 0.00 0.00 0.00 82 975.4
20260506145954 78 215 0.0 0.0 0.00 0.00 0.00 82 975.2
20260506145450 78 215 0.0 0.0 0.00 0.00 0.00 81 975.3
20260506144948 78 215 0.0 0.0 0.00 0.00 0.00 81 975.1
20260506144444 79 202 0.0 0.0 0.00 0.00 0.00 81 975.1
20260506143942 79 202 0.0 0.0 0.00 0.00 0.00 80 975.0
20260506143439 79 194 0.0 0.0 0.00 0.00 0.00 80 974.9
20260506142938 79 204 0.0 0.0 0.00 0.00 0.00 81 974.7
20260506142435 79 204 0.0 0.0 0.00 0.00 0.00 80 974.7
20260506141933 79 210 0.0 0.0 0.00 0.00 0.00 80 974.5
20260506141430 79 210 0.0 0.0 0.00 0.00 0.00 79 974.6
20260506140929 80 210 0.0 0.0 0.00 0.00 0.00 78 974.5
20260506140425 80 210 0.0 0.0 0.00 0.00 0.00 77 974.4
20260506135922 80 209 0.0 0.0 0.00 0.00 0.00 77 974.1
20260506135420 80 202 0.0 0.0 0.00 0.00 0.00 76 974.2
20260506134915 80 202 0.0 0.0 0.00 0.00 0.00 76 974.2
20260506134412 80 192 0.0 0.0 0.00 0.00 0.00 75 974.2
20260506133909 80 173 0.0 0.0 0.00 0.00 0.00 75 974.1
20260506133406 80 187 0.0 0.0 0.00 0.00 0.00 76 974.2
20260506132902 80 199 0.0 0.0 0.00 0.00 0.00 77 974.1
20260506132359 80 181 0.0 1.0 0.00 0.00 0.00 81 974.2
20260506131857 80 30 0.0 0.0 0.00 0.00 0.00 77 974.2
20260506131353 80 209 0.0 0.0 0.00 0.00 0.00 76 974.0
20260506130851 80 206 0.0 0.0 0.00 0.00 0.00 75 973.9
20260506130347 80 205 0.0 0.0 0.00 0.00 0.00 74 974.0
20260506125845 81 206 0.0 0.0 0.00 0.00 0.00 75 973.9
20260506125343 81 205 0.0 0.0 0.00 0.00 0.00 75 973.9
20260506124841 81 205 0.0 0.0 0.00 0.00 0.00 75 973.9
20260506124338 81 209 0.0 0.0 0.00 0.00 0.00 75 973.8
20260506123836 82 216 0.0 0.0 0.00 0.00 0.00 77 974.0
20260506123334 82 205 0.0 0.0 0.00 0.00 0.00 77 974.0
20260506122831 82 222 0.0 0.0 0.00 0.00 0.00 77 973.9
20260506122327 82 214 0.0 0.0 0.00 0.00 0.00 77 973.9
20260506121826 82 216 0.0 0.0 0.00 0.00 0.00 79 973.9
20260506121323 82 220 0.0 0.0 0.00 0.00 0.00 79 974.2
20260506120820 82 210 0.0 0.0 0.00 0.00 0.00 79 973.9
20260506120317 82 212 0.0 0.0 0.00 0.00 0.00 79 973.6
20260506115814 83 212 0.0 0.0 0.00 0.00 0.00 78 973.6
20260506115313 83 213 0.0 0.0 0.00 0.00 0.00 77 973.7
20260506114810 83 213 0.0 0.0 0.00 0.00 0.00 77 973.5
20260506114308 83 212 0.0 0.0 0.00 0.00 0.00 77 973.6
20260506113806 83 211 0.0 0.0 0.00 0.00 0.00 79 973.5
20260506113303 83 212 0.0 0.0 0.00 0.00 0.00 78 973.3
20260506112800 83 201 0.0 0.0 0.00 0.00 0.00 77 973.4
20260506112257 84 208 0.0 0.0 0.00 0.00 0.00 78 973.1
20260506111754 84 159 0.0 0.0 0.00 0.00 0.00 77 973.0
20260506111253 84 139 0.0 2.0 0.00 0.00 0.00 77 973.2
20260506110749 84 55 0.0 5.0 0.00 0.00 0.00 77 973.0
20260506110247 84 136 1.0 5.0 0.00 0.00 0.00 76 973.0
20260506105743 84 94 2.0 6.0 0.00 0.00 0.00 75 972.8
20260506105240 85 33 3.0 5.0 0.00 0.00 0.00 73 972.8
20260506104738 85 88 1.0 5.0 0.00 0.00 0.00 72 972.9
20260506104235 86 100 0.0 5.0 0.00 0.00 0.00 70 972.9
20260506103732 86 86 0.0 6.0 0.00 0.00 0.00 69 972.8
20260506103230 88 45 2.0 5.0 0.00 0.00 0.00 67 972.6
20260506102727 87 344 1.0 2.0 0.00 0.00 0.00 66 972.7
20260506102225 87 55 1.0 3.0 0.00 0.00 0.00 68 972.6
20260506101722 86 156 0.0 2.0 0.00 0.00 0.00 68 972.6
20260506101218 86 132 1.0 7.0 0.00 0.00 0.00 69 972.4
20260506100716 88 76 1.0 8.0 0.00 0.00 0.00 69 972.5
20260506100214 88 76 1.0 5.0 0.00 0.00 0.00 73 972.7
20260506095712 89 33 0.0 1.0 0.00 0.00 0.00 74 972.6
20260506095209 89 225 1.0 1.0 0.00 0.00 0.00 74 972.5
20260506094706 91 263 1.0 1.0 0.00 0.00 0.00 68 972.5
20260506094204 91 214 0.0 0.0 0.00 0.00 0.00 64 972.3
20260506093703 91 205 0.0 0.0 0.00 0.00 0.00 63 972.1
20260506093159 91 205 0.0 0.0 0.00 0.00 0.00 64 972.1
20260506092657 92 201 0.0 0.0 0.00 0.00 0.00 64 972.2
20260506092154 92 220 0.0 0.0 0.00 0.00 0.00 65 972.2
20260506091652 92 198 0.0 0.0 0.00 0.00 0.00 64 972.4
20260506091149 93 209 0.0 0.0 0.00 0.00 0.00 62 972.4
20260506090647 94 209 0.0 0.0 0.00 0.00 0.00 62 972.4
20260506090143 94 209 0.0 0.0 0.00 0.00 0.00 62 972.3
20260506085640 95 216 0.0 0.0 0.00 0.00 0.00 60 972.6
20260506085136 95 216 0.0 0.0 0.00 0.00 0.00 61 972.6
20260506084633 95 214 0.0 0.0 0.00 0.00 0.00 63 972.6
20260506084130 95 221 0.0 0.0 0.00 0.00 0.00 62 972.4
20260506083627 96 217 0.0 0.0 0.00 0.00 0.00 60 972.6
20260506083125 95 216 0.0 0.0 0.00 0.00 0.00 60 972.5
20260506082621 95 247 1.0 1.0 0.00 0.00 0.00 64 972.8
20260506082117 95 247 1.0 1.0 0.00 0.00 0.00 64 972.7
20260506081615 94 223 0.0 0.0 0.00 0.00 0.00 61 972.9
20260506081112 93 222 0.0 0.0 0.00 0.00 0.00 67 972.8
20260506080610 93 222 0.0 0.0 0.00 0.00 0.00 67 972.7
20260506080106 93 215 0.0 0.0 0.00 0.00 0.00 65 972.8
20260506073050 93 204 0.0 1.0 0.00 0.00 0.00 62 973.2
20260506072547 94 208 0.0 1.0 0.00 0.00 0.00 62 973.6
20260506072045 93 229 0.0 0.0 0.00 0.00 0.00 68 973.7
20260506071543 93 232 0.0 0.0 0.00 0.00 0.00 64 973.8
20260506071040 94 237 0.0 0.0 0.00 0.00 0.00 63 974.2
20260506070537 94 208 0.0 0.0 0.00 0.00 0.00 62 974.2
20260506062514 92 213 0.0 1.0 0.00 0.00 0.00 64 975.1
20260506062011 92 197 0.0 1.0 0.00 0.00 0.00 64 975.2
20260506061506 93 225 0.0 0.0 0.00 0.00 0.00 64 975.4
20260506061005 92 233 0.0 1.0 0.00 0.00 0.00 67 975.5
20260506060503 91 194 0.0 0.0 0.00 0.00 0.00 69 975.6
20260506050931 92 233 0.0 0.0 0.00 0.00 0.00 68 976.6
20260506050429 91 246 0.0 0.0 0.00 0.00 0.00 68 976.6
20260506044920 91 235 0.0 1.0 0.00 0.00 0.00 70 976.9
20260506044418 90 235 0.0 0.0 0.00 0.00 0.00 71 976.8
20260506043914 89 181 0.0 1.0 0.00 0.00 0.00 71 976.8
20260506043412 89 249 0.0 0.0 0.00 0.00 0.00 71 976.9
20260506042910 88 203 0.0 1.0 0.00 0.00 0.00 74 977.1
20260506042409 88 255 1.0 1.0 0.00 0.00 0.00 71 977.0
20260506041906 89 176 1.0 2.0 0.00 0.00 0.00 72 977.0
20260506041404 89 178 0.0 0.0 0.00 0.00 0.00 71 977.2
20260506040901 88 178 0.0 1.0 0.00 0.00 0.00 75 977.3
20260506040358 89 178 0.0 0.0 0.00 0.00 0.00 71 977.5
20260506035854 88 178 0.0 0.0 0.00 0.00 0.00 72 977.5
20260506035352 89 178 1.0 1.0 0.00 0.00 0.00 74 977.6
20260506034849 89 178 0.0 0.0 0.00 0.00 0.00 74 977.3
20260506034346 88 237 0.0 1.0 0.00 0.00 0.00 72 977.3
20260506033843 88 241 0.0 1.0 0.00 0.00 0.00 74 977.6
20260506033340 88 260 1.0 1.0 0.00 0.00 0.00 71 977.7
20260506032837 87 259 0.0 0.0 0.00 0.00 0.00 75 977.7
20260506032333 87 238 0.0 0.0 0.00 0.00 0.00 76 977.7
20260506031830 87 227 0.0 0.0 0.00 0.00 0.00 76 977.6
20260506031328 86 239 0.0 0.0 0.00 0.00 0.00 75 977.7
20260506030825 87 191 0.0 0.0 0.00 0.00 0.00 73 977.6
20260506030323 86 231 0.0 0.0 0.00 0.00 0.00 75 977.8
20260506025820 86 246 0.0 1.0 0.00 0.00 0.00 76 978.0
20260506025316 88 17 1.0 1.0 0.00 0.00 0.00 72 977.8
20260506024813 85 236 0.0 0.0 0.00 0.00 0.00 75 977.8
20260506024310 85 225 0.0 0.0 0.00 0.00 0.00 77 977.7
20260506023806 85 242 0.0 1.0 0.00 0.00 0.00 78 978.0
20260506023303 84 224 0.0 1.0 0.00 0.00 0.00 79 978.0
20260506022759 85 200 0.0 0.0 0.00 0.00 0.00 75 978.0
20260506022258 84 221 0.0 0.0 0.00 0.00 0.00 80 977.8
20260506021755 82 235 0.0 1.0 0.00 0.00 0.00 83 977.9
20260506021252 82 243 0.0 1.0 0.00 0.00 0.00 81 977.9
20260506020749 81 241 0.0 1.0 0.00 0.00 0.00 83 977.7
20260506020247 81 226 0.0 1.0 0.00 0.00 0.00 83 977.8
20260506015744 81 250 0.0 1.0 0.00 0.00 0.00 83 977.9
20260506015241 80 233 0.0 0.0 0.00 0.00 0.00 84 978.2
20260506014738 80 226 0.0 0.0 0.00 0.00 0.00 84 977.8
20260506014235 81 226 0.0 0.0 0.00 0.00 0.00 83 977.8
20260506013732 80 225 0.0 0.0 0.00 0.00 0.00 85 977.6
20260506013229 80 221 0.0 0.0 0.00 0.00 0.00 84 977.9
20260506012725 80 219 0.0 0.0 0.00 0.00 0.00 87 977.7
20260506012222 79 221 0.0 0.0 0.00 0.00 0.00 88 977.7
20260506011720 80 220 0.0 0.0 0.00 0.00 0.00 87 977.7
20260506011215 80 221 0.0 0.0 0.00 0.00 0.00 86 977.7
20260506010714 82 225 0.0 1.0 0.00 0.00 0.00 83 977.7
20260506010211 80 224 0.0 0.0 0.00 0.00 0.00 86 977.6
20260506005708 80 251 0.0 1.0 0.00 0.00 0.00 86 977.9
20260506005205 79 238 0.0 0.0 0.00 0.00 0.00 87 977.6
20260506004655 76 222 0.0 0.0 0.00 0.00 0.00 91 977.6
20260506004153 76 222 0.0 0.0 0.00 0.00 0.00 91 977.5
20260506003649 76 222 0.0 0.0 0.00 0.00 0.00 91 977.5
20260506003146 76 222 0.0 0.0 0.00 0.00 0.00 91 977.3
20260506002641 76 222 0.0 0.0 0.00 0.00 0.00 91 977.6
20260506002138 76 222 0.0 0.0 0.00 0.00 0.00 91 977.3
20260506001633 76 222 0.0 0.0 0.00 0.00 0.00 91 977.3
20260506001131 75 217 0.0 0.0 0.00 0.00 0.00 93 977.5
20260506000628 75 217 0.0 0.0 0.00 0.00 0.00 93 977.1
20260506000125 76 220 0.0 0.0 0.00 0.00 0.00 92 977.0
20260505235623 76 216 0.0 0.0 0.00 0.00 0.00 92 977.2
20260505235120 76 216 0.0 0.0 0.00 0.00 0.00 92 977.0
20260505234617 73 217 0.0 0.0 0.00 0.00 0.00 98 977.0
20260505234114 73 217 0.0 0.0 0.00 0.00 0.00 98 977.0
20260505233612 73 217 0.0 0.0 0.00 0.00 0.00 98 977.0
20260505233109 71 219 0.0 0.0 0.00 0.00 0.00 99 976.6
20260505232606 71 219 0.0 0.0 0.00 0.00 0.00 99 976.7
20260505232104 71 219 0.0 0.0 0.00 0.00 0.00 99 976.9
20260505231600 71 219 0.0 0.0 0.00 0.00 0.00 99 976.8
20260505231059 71 212 0.0 0.0 0.00 0.00 0.00 99 976.5
20260505230556 71 212 0.0 0.0 0.00 0.00 0.00 99 976.6
20260505230052 71 212 0.0 0.0 0.00 0.00 0.00 99 976.7
20260505225549 71 212 0.0 0.0 0.00 0.00 0.00 99 976.4
20260505225045 71 216 0.0 0.0 0.00 0.00 0.00 99 976.5
20260505224537 71 215 0.0 0.0 0.00 0.00 0.00 99 976.6
20260505224034 71 216 0.0 0.0 0.00 0.00 0.00 99 976.5
20260505223531 71 215 0.0 0.0 0.00 0.00 0.00 98 976.3
20260505223027 71 215 0.0 0.0 0.00 0.00 0.00 98 976.4
20260505222524 71 215 0.0 0.0 0.00 0.00 0.00 98 976.3
20260505222019 71 215 0.0 0.0 0.00 0.00 0.00 98 976.3
20260505221517 71 215 0.0 0.0 0.00 0.00 0.00 98 976.2
20260505221014 71 219 0.0 0.0 0.00 0.00 0.00 98 976.3
20260505220511 71 219 0.0 0.0 0.00 0.00 0.00 98 976.0
20260505220009 71 219 0.0 0.0 0.00 0.00 0.00 98 976.1
20260505215507 71 218 0.0 0.0 0.00 0.00 0.00 98 975.9
20260505215004 71 217 0.0 0.0 0.00 0.00 0.00 98 975.9
20260505214502 71 217 0.0 0.0 0.00 0.00 0.00 97 975.8
20260505213959 71 218 0.0 0.0 0.00 0.00 0.00 97 975.7
20260505213456 71 217 0.0 0.0 0.00 0.00 0.00 97 975.6
20260505212952 71 218 0.0 0.0 0.00 0.00 0.00 97 975.7
20260505212449 71 218 0.0 0.0 0.00 0.00 0.00 97 975.6
20260505211946 71 220 0.0 0.0 0.00 0.00 0.00 97 975.4
20260505211443 71 218 0.0 0.0 0.00 0.00 0.00 96 975.5
20260505210939 72 218 0.0 0.0 0.00 0.00 0.00 96 975.7
20260505210437 72 223 0.0 0.0 0.00 0.00 0.00 97 975.7
20260505205933 72 218 0.0 0.0 0.00 0.00 0.00 96 975.8
20260505205432 71 214 0.0 0.0 0.00 0.00 0.00 95 975.6
20260505204928 71 216 0.0 0.0 0.00 0.00 0.00 95 975.7
20260505204426 71 215 0.0 0.0 0.00 0.00 0.00 95 975.5
20260505203923 71 215 0.0 0.0 0.00 0.00 0.00 95 975.7
20260505203419 72 215 0.0 0.0 0.00 0.00 0.00 95 975.5
20260505202916 72 215 0.0 0.0 0.00 0.00 0.00 95 975.5
20260505202412 72 238 0.0 0.0 0.00 0.00 0.00 94 975.5
20260505201909 72 218 0.0 0.0 0.00 0.00 0.00 94 975.6
20260505201406 72 217 0.0 0.0 0.00 0.00 0.00 94 975.5
20260505200904 72 205 0.0 0.0 0.00 0.00 0.00 93 975.6
20260505200401 72 205 0.0 0.0 0.00 0.00 0.00 93 975.4
20260505195856 72 198 0.0 0.0 0.00 0.00 0.00 93 975.9
20260505195354 72 192 0.0 1.0 0.00 0.00 0.00 93 975.7
20260505194851 72 196 0.0 1.0 0.00 0.00 0.00 93 975.8
20260505194348 72 195 0.0 0.0 0.00 0.00 0.00 93 975.6
20260505193843 72 210 0.0 0.0 0.00 0.00 0.00 93 975.8
20260505193341 72 203 0.0 0.0 0.00 0.00 0.00 93 975.8
20260505192838 72 174 1.0 1.0 0.00 0.00 0.00 92 976.0
20260505192337 72 178 1.0 1.0 0.00 0.00 0.00 93 975.7
20260505191834 72 210 0.0 0.0 0.00 0.00 0.00 94 975.6
20260505191333 72 219 0.0 0.0 0.00 0.00 0.00 96 975.9
20260505190829 72 219 0.0 0.0 0.00 0.00 0.00 96 975.9